Total_Precipitation_Accumulation
1.99 2.18 2.17 2.19 2.26 2.32 2.17 1.92 1.83 1.84 1.92 2.00 2.20 2.28 2.22 2.25 2.37 2.45 2.41 2.72 2.85 2.87 2.86 2.84 2.80 2.92 2.93 2.84 2.94 3.10 3.37 3.45 3.09 2.56 2.44 2.38 2.37 2.27 2.28 2.14 2.00 1.92 1.72
1.86 2.07 2.16 2.15 2.19 2.20 2.07 1.88 1.83 1.87 1.94 1.98 2.12 2.16 2.06 2.08 2.30 2.33 2.38 2.65 2.80 2.69 2.69 2.69 2.48 2.53 2.60 2.49 2.63 2.70 2.85 3.10 3.04 2.72 2.65 2.60 2.55 2.42 2.42 2.37 2.15 1.91 1.64
1.75 2.08 2.27 2.30 2.24 2.17 2.00 1.78 1.71 1.72 1.82 1.88 1.91 1.95 2.00 2.14 2.25 2.25 2.27 2.27 2.29 2.37 2.59 2.70 2.48 2.46 2.35 2.35 2.38 2.37 2.47 2.59 2.82 2.74 2.62 2.65 2.58 2.57 2.49 2.27 2.11 2.01 1.66
1.66 1.85 1.96 1.87 1.82 1.85 1.78 1.65 1.58 1.60 1.67 1.76 1.84 1.94 2.01 2.07 2.12 2.20 2.26 2.19 2.16 2.21 2.35 2.41 2.38 2.35 2.28 2.38 2.28 2.27 2.35 2.51 2.63 2.67 2.59 2.68 2.67 2.62 2.63 2.41 2.40 2.28 2.07
1.37 1.47 1.60 1.60 1.57 1.56 1.62 1.67 1.68 1.76 1.75 1.82 1.89 1.92 1.92 1.91 1.83 1.88 1.97 1.98 2.10 2.06 1.97 2.00 2.02 2.05 2.04 2.08 1.94 2.09 2.32 2.46 2.51 2.52 2.51 2.68 2.84 2.86 2.68 2.60 2.64 2.62 2.41
1.21 1.31 1.54 1.67 1.68 1.67 1.71 1.82 1.86 1.84 1.83 1.87 1.83 1.88 1.89 1.64 1.81 1.83 1.83 1.93 2.02 2.01 1.93 1.83 1.74 1.74 1.67 1.67 1.63 1.71 1.99 2.20 2.32 2.44 2.42 2.54 2.77 2.96 3.07 3.02 2.87 2.76 2.69
1.34 1.48 1.66 1.76 1.84 1.85 1.81 1.94 1.90 1.90 1.96 1.91 1.85 1.85 1.89 1.94 1.98 1.80 1.67 1.64 1.75 1.81 1.80 1.78 1.57 1.48 1.65 1.62 1.64 1.61 1.63 1.79 1.95 2.15 2.24 2.21 2.40 2.69 2.94 2.87 2.99 3.02 2.94
1.62 1.82 1.91 2.01 1.96 1.93 1.93 1.96 2.04 2.12 2.14 2.11 2.06 1.97 1.96 1.94 1.91 1.71 1.71 1.64 1.68 1.70 1.73 1.77 1.76 1.66 1.71 1.82 1.78 1.71 1.59 1.55 1.65 1.72 1.84 1.97 2.20 2.52 2.80 2.77 2.82 2.91 2.95
1.79 1.89 2.03 2.12 2.16 2.16 2.17 2.14 2.22 2.33 2.28 2.19 2.13 2.14 2.07 2.08 2.16 1.97 1.98 1.84 1.85 1.87 1.90 1.90 1.86 1.75 1.88 1.84 1.75 1.74 1.68 1.65 1.71 1.78 1.76 1.87 2.12 2.26 2.43 2.53 2.49 2.56 2.51
1.77 1.88 2.05 2.27 2.32 2.33 2.47 2.56 2.51 2.46 2.31 2.31 2.30 2.26 2.26 2.30 2.54 2.34 2.17 2.02 2.04 2.04 2.13 2.10 2.12 1.95 1.94 1.87 1.73 1.75 1.76 1.76 1.84 1.81 1.78 1.75 1.78 1.99 2.23 2.27 2.42 2.59 2.47
1.79 1.94 2.12 2.29 2.37 2.45 2.61 2.68 2.65 2.58 2.54 2.48 2.40 2.45 2.44 2.43 2.60 2.37 2.18 2.06 2.12 2.25 2.25 2.15 2.19 2.19 1.99 2.00 1.93 1.84 1.83 1.81 1.80 1.84 1.83 1.82 1.84 1.94 2.05 2.17 2.42 2.58 2.56
1.72 1.86 2.00 2.15 2.17 2.26 2.52 2.60 2.67 2.68 2.61 2.51 2.45 2.33 2.38 2.37 2.30 2.18 2.09 2.06 2.15 2.25 2.30 2.22 2.19 2.17 1.96 1.88 1.75 1.72 1.76 1.64 1.57 1.68 1.70 1.72 1.75 1.76 1.85 2.07 2.27 2.34 2.35
1.78 1.92 2.08 2.16 2.21 2.31 2.41 2.44 2.52 2.56 2.49 2.37 2.39 2.34 2.30 2.31 2.30 2.07 1.86 1.83 1.87 1.90 2.03 2.16 2.09 1.98 1.77 1.59 1.55 1.53 1.44 1.32 1.31 1.37 1.37 1.37 1.42 1.51 1.64 1.81 2.02 2.11 2.11
1.84 1.92 2.02 2.14 2.15 2.22 2.33 2.42 2.51 2.59 2.65 2.53 2.40 2.30 2.29 2.25 2.13 1.94 1.75 1.68 1.78 1.90 1.99 2.05 1.92 1.80 1.61 1.47 1.38 1.28 1.23 1.28 1.31 1.30 1.33 1.41 1.46 1.51 1.53 1.60 1.74 1.88 1.92
1.78 1.85 1.89 1.94 2.05 2.16 2.19 2.27 2.26 2.33 2.35 2.32 2.24 2.21 2.21 2.15 2.00 1.91 1.74 1.62 1.74 1.93 2.00 2.00 1.84 1.77 1.68 1.57 1.48 1.42 1.40 1.41 1.37 1.36 1.42 1.42 1.43 1.47 1.46 1.47 1.59 1.61 1.58
1.80 1.84 1.78 1.74 1.82 1.89 1.96 1.96 1.98 1.91 1.91 1.86 1.87 1.85 1.79 1.71 1.60 1.48 1.47 1.49 1.58 1.75 1.76 1.82 1.89 1.84 1.78 1.68 1.57 1.48 1.45 1.42 1.38 1.40 1.45 1.45 1.42 1.41 1.46 1.43 1.47 1.51 1.44
1.72 1.78 1.77 1.74 1.78 1.78 1.82 1.83 1.88 1.82 1.73 1.65 1.61 1.62 1.66 1.62 1.56 1.55 1.57 1.62 1.59 1.64 1.57 1.67 1.76 1.72 1.70 1.64 1.52 1.40 1.37 1.40 1.47 1.46 1.47 1.46 1.51 1.52 1.55 1.51 1.47 1.50 1.45
1.51 1.59 1.69 1.78 1.83 1.85 1.88 1.94 2.03 2.07 1.96 1.76 1.62 1.55 1.49 1.47 1.41 1.46 1.55 1.53 1.45 1.45 1.48 1.60 1.63 1.58 1.54 1.49 1.45 1.39 1.37 1.44 1.54 1.50 1.48 1.49 1.52 1.53 1.55 1.54 1.49 1.46 1.46
1.42 1.46 1.48 1.55 1.66 1.75 1.75 1.78 1.86 1.95 1.97 1.85 1.69 1.58 1.51 1.43 1.35 1.33 1.32 1.21 1.25 1.37 1.51 1.53 1.55 1.54 1.44 1.37 1.35 1.30 1.30 1.35 1.45 1.51 1.49 1.54 1.56 1.59 1.59 1.56 1.58 1.60 1.51
1.43 1.47 1.46 1.43 1.43 1.49 1.55 1.61 1.68 1.78 1.84 1.78 1.67 1.54 1.42 1.35 1.19 1.13 1.08 1.07 1.15 1.22 1.29 1.33 1.36 1.33 1.24 1.25 1.29 1.27 1.25 1.33 1.44 1.49 1.47 1.54 1.61 1.60 1.53 1.51 1.51 1.54 1.46
1.43 1.41 1.43 1.43 1.45 1.48 1.53 1.60 1.62 1.66 1.70 1.62 1.50 1.38 1.30 1.16 1.06 0.99 0.99 1.04 1.11 1.19 1.25 1.29 1.29 1.24 1.23 1.27 1.32 1.35 1.33 1.38 1.47 1.50 1.52 1.55 1.62 1.63 1.54 1.50 1.48 1.51 1.52
1.45 1.36 1.31 1.32 1.40 1.46 1.53 1.61 1.65 1.64 1.58 1.49 1.40 1.26 1.21 1.07 1.00 0.99 1.01 1.06 1.12 1.22 1.26 1.27 1.29 1.27 1.23 1.25 1.33 1.38 1.41 1.44 1.49 1.51 1.49 1.51 1.59 1.61 1.63 1.61 1.62 1.64 1.67
1.56 1.43 1.36 1.33 1.33 1.36 1.40 1.47 1.52 1.50 1.45 1.36 1.25 1.18 1.11 1.07 0.99 1.00 1.06 1.15 1.22 1.23 1.20 1.18 1.19 1.21 1.21 1.24 1.26 1.32 1.39 1.44 1.47 1.48 1.54 1.58 1.57 1.56 1.58 1.53 1.54 1.58 1.60
1.58 1.47 1.35 1.27 1.27 1.30 1.34 1.41 1.41 1.36 1.29 1.26 1.22 1.19 1.14 1.14 1.09 1.09 1.14 1.22 1.16 1.09 1.06 1.07 1.09 1.08 1.12 1.19 1.20 1.21 1.26 1.35 1.36 1.35 1.38 1.44 1.45 1.46 1.51 1.50 1.50 1.52 1.58
1.57 1.50 1.37 1.27 1.26 1.27 1.29 1.35 1.37 1.34 1.28 1.19 1.18 1.19 1.24 1.28 1.22 1.18 1.17 1.15 1.07 1.00 0.95 1.01 1.05 1.04 1.07 1.10 1.14 1.16 1.22 1.21 1.19 1.22 1.24 1.31 1.36 1.44 1.50 1.51 1.52 1.52 1.56
1.40 1.31 1.23 1.17 1.13 1.17 1.22 1.29 1.31 1.31 1.29 1.25 1.26 1.27 1.24 1.23 1.19 1.13 1.09 1.07 1.04 1.00 0.97 1.00 1.04 1.04 1.09 1.09 1.03 1.03 1.02 0.95 0.97 1.07 1.06 1.11 1.25 1.37 1.47 1.55 1.55 1.58 1.58